This is the latest recevied weather packets stored in our database for station/object WA4OPQ-3. If no packets are shown the sender has not sent any weather packets the latest 10 day(s).
| Time | Temp. | Humidity | Pressure | Rain* | Wind** | Luminosity | Snow |
|---|---|---|---|---|---|---|---|
| 1777784780 | 4.44° C | 99% | 1019.5 hPa | 0 mm | - | 0 W/m² | - |
| 1777784174 | 5° C | 99% | 1019.2 hPa | 0 mm | - | 0 W/m² | - |
| 1777783568 | 4.44° C | 98% | 1019.1 hPa | 0 mm | - | 0 W/m² | - |
| 1777782963 | 5° C | 98% | 1019 hPa | 0 mm | - | 0 W/m² | - |
| 1777782358 | 5° C | 98% | 1018.8 hPa | 0 mm | - | 0 W/m² | - |
| 1777781755 | 5.56° C | 98% | 1019 hPa | 0 mm | - | 0 W/m² | - |
| 1777781148 | 5.56° C | 97% | 1018.9 hPa | 0 mm | - | 0 W/m² | - |
| 1777780544 | 5.56° C | 97% | 1018.9 hPa | 0 mm | - | 0 W/m² | - |
| 1777779939 | 6.11° C | 97% | 1018.9 hPa | 0 mm | - | 0 W/m² | - |
| 1777779335 | 6.11° C | 96% | 1018.9 hPa | 0 mm | - | 0 W/m² | - |
| 1777778729 | 6.67° C | 96% | 1019.3 hPa | 0 mm | - | 0 W/m² | - |
| 1777778124 | 6.67° C | 95% | 1018.9 hPa | 0 mm | - | 0 W/m² | - |
| 1777777518 | 7.22° C | 93% | 1019.1 hPa | 0 mm | - | 0 W/m² | - |
| 1777776913 | 7.78° C | 92% | 1018.8 hPa | 0 mm | - | 0 W/m² | - |
| 1777776309 | 7.78° C | 91% | 1018.8 hPa | 0 mm | - | 0 W/m² | - |
| 1777775703 | 8.33° C | 90% | 1018.8 hPa | 0 mm | - | 0 W/m² | - |
| 1777775099 | 8.33° C | 87% | 1018.7 hPa | 0 mm | - | 0 W/m² | - |
| 1777774494 | 8.89° C | 86% | 1018.2 hPa | 0 mm | - | 0 W/m² | - |
| 1777773888 | 9.44° C | 85% | 1018.2 hPa | 0 mm | - | 0 W/m² | - |
| 1777773283 | 10° C | 83% | 1018 hPa | 0 mm | - | 0 W/m² | - |
| 1777772678 | 10.56° C | 81% | 1017.7 hPa | 0 mm | - | 0 W/m² | - |
| 1777772074 | 10.56° C | 81% | 1017.8 hPa | 0 mm | - | 0 W/m² | - |
| 1777771468 | 11.11° C | 80% | 1017.7 hPa | 0 mm | - | 0 W/m² | - |
| 1777770863 | 11.67° C | 77% | 1017.6 hPa | 0 mm | - | 0 W/m² | - |
| 1777770258 | 11.67° C | 76% | 1017.4 hPa | 0 mm | - | 0 W/m² | - |
* Rain latest hour (hover to see other rain measurements)
** Current wind speed in m/s (hover to see current wind gust speed)